When you browse on this site, cookies collect data to enhance your experience and personalize the content and advertising you see.
Visit our Privacy Policy to learn more. By continuing to use the site, you agree to this use of cookies and data.
  • In United Kingdom
  • List of Countries
  • For 7 days
  • Water Temperature
  • Satellite Maps
  • Weather Map
  • Weather Widgets
  • user-avatar
    Login

    Hourly Weather Brest

    Today, 18 July, Thursday

    Time Temperature Precipitation Wind Pressure Humidity
    00:00 +12°C° 0 mm 4 mps 745 mmHg 94%
    01:00 +12°C° 0 mm 4 mps 745 mmHg 95%
    02:00 +11°C° 0 mm 4 mps 745 mmHg 96%
    03:00 +12°C° 0 mm 4 mps 745 mmHg 96%
    04:00 +12°C° 0 mm 4 mps 745 mmHg 95%
    05:00 +12°C° 0 mm 4 mps 745 mmHg 94%
    06:00 +12°C° 0 mm 4 mps 745 mmHg 93%
    07:00 +13°C° 0 mm 4 mps 746 mmHg 91%
    08:00 +13°C° 0 mm 4 mps 746 mmHg 89%
    09:00 +14°C° 0 mm 4 mps 746 mmHg 84%
    10:00 +17°C° 0 mm 4 mps 746 mmHg 80%
    11:00 +18°C° 0 mm 3 mps 746 mmHg 75%
    12:00 +20°C° 0 mm 4 mps 746 mmHg 68%
    13:00 +21°C° 0 mm 4 mps 746 mmHg 61%
    14:00 +23°C° 0 mm 4 mps 746 mmHg 54%
    15:00 +23°C° 0.2 mm 4 mps 746 mmHg 57%
    16:00 +22°C° 0.2 mm 4 mps 746 mmHg 59%
    17:00 +22°C° 0.2 mm 4 mps 746 mmHg 62%
    18:00 +21°C° 0.1 mm 4 mps 746 mmHg 67%
    19:00 +20°C° 0.1 mm 3 mps 747 mmHg 73%
    20:00 +18°C° 0.1 mm 2 mps 747 mmHg 79%
    21:00 +17°C° 0 mm 2 mps 747 mmHg 82%
    22:00 +16°C° 0 mm 2 mps 747 mmHg 85%
    23:00 +15°C° 0 mm 2 mps 748 mmHg 88%

    Tomorrow, 19 July, Friday

    Time Temperature Precipitation Wind Pressure Humidity
    00:00 +15°C° 0 mm 2 mps 748 mmHg 90%
    01:00 +15°C° 0 mm 2 mps 748 mmHg 91%
    02:00 +14°C° 0 mm 2 mps 748 mmHg 92%
    03:00 +14°C° 0 mm 2 mps 748 mmHg 92%
    04:00 +14°C° 0 mm 1 mps 748 mmHg 92%
    05:00 +13°C° 0 mm 1 mps 748 mmHg 93%
    06:00 +15°C° 0 mm 2 mps 748 mmHg 87%
    07:00 +17°C° 0 mm 2 mps 749 mmHg 81%
    08:00 +19°C° 0 mm 2 mps 749 mmHg 75%
    09:00 +20°C° 0.1 mm 2 mps 749 mmHg 67%
    10:00 +22°C° 0.1 mm 3 mps 749 mmHg 60%
    11:00 +24°C° 0.1 mm 3 mps 749 mmHg 53%
    12:00 +25°C° 0 mm 3 mps 749 mmHg 50%
    13:00 +25°C° 0 mm 3 mps 749 mmHg 47%
    14:00 +26°C° 0 mm 3 mps 749 mmHg 44%
    15:00 +26°C° 0 mm 3 mps 749 mmHg 45%
    16:00 +26°C° 0 mm 3 mps 749 mmHg 45%
    17:00 +26°C° 0 mm 2 mps 749 mmHg 45%
    18:00 +24°C° 0 mm 2 mps 749 mmHg 52%
    19:00 +23°C° 0 mm 2 mps 749 mmHg 59%
    20:00 +21°C° 0 mm 1 mps 749 mmHg 65%
    21:00 +20°C° 0 mm 1 mps 749 mmHg 69%
    22:00 +19°C° 0 mm 1 mps 749 mmHg 73%
    23:00 +16°C° 0 mm 0 mps 750 mmHg 76%

    Day after tomorrow, 20 July, Saturday

    Time Temperature Precipitation Wind Pressure Humidity
    00:00 +16°C° 0 mm 0 mps 750 mmHg 78%
    01:00 +16°C° 0 mm 1 mps 750 mmHg 79%
    02:00 +16°C° 0 mm 1 mps 750 mmHg 81%
    03:00 +16°C° 0 mm 1 mps 750 mmHg 81%
    04:00 +16°C° 0 mm 1 mps 750 mmHg 81%
    05:00 +15°C° 0 mm 1 mps 750 mmHg 81%
    06:00 +18°C° 0 mm 1 mps 750 mmHg 75%
    07:00 +20°C° 0 mm 1 mps 750 mmHg 69%
    08:00 +22°C° 0 mm 1 mps 751 mmHg 64%
    09:00 +24°C° 0 mm 1 mps 751 mmHg 58%
    10:00 +25°C° 0 mm 1 mps 751 mmHg 52%
    11:00 +27°C° 0 mm 1 mps 751 mmHg 47%
    12:00 +27°C° 0 mm 1 mps 751 mmHg 46%
    13:00 +27°C° 0 mm 1 mps 751 mmHg 44%
    14:00 +27°C° 0 mm 1 mps 751 mmHg 43%
    15:00 +27°C° 0 mm 1 mps 751 mmHg 44%
    16:00 +27°C° 0 mm 1 mps 751 mmHg 46%
    17:00 +25°C° 0 mm 0 mps 751 mmHg 47%
    18:00 +26°C° 0 mm 1 mps 751 mmHg 52%
    19:00 +25°C° 0 mm 1 mps 751 mmHg 56%
    20:00 +24°C° 0 mm 1 mps 751 mmHg 61%
    21:00 +23°C° 0 mm 1 mps 751 mmHg 64%
    22:00 +20°C° 0 mm 2 mps 752 mmHg 67%
    23:00 +19°C° 0 mm 2 mps 752 mmHg 70%

    21 July, Sunday

    Time Temperature Precipitation Wind Pressure Humidity
    00:00 +19°C° 0 mm 2 mps 752 mmHg 74%
    01:00 +18°C° 0 mm 2 mps 752 mmHg 79%
    02:00 +18°C° 0 mm 2 mps 751 mmHg 83%
    03:00 +17°C° 0 mm 2 mps 751 mmHg 85%
    04:00 +17°C° 0 mm 2 mps 751 mmHg 87%
    05:00 +17°C° 0 mm 2 mps 751 mmHg 89%
    06:00 +19°C° 0 mm 2 mps 751 mmHg 83%
    07:00 +20°C° 0 mm 3 mps 751 mmHg 76%
    08:00 +22°C° 0 mm 3 mps 751 mmHg 70%
    09:00 +25°C° 0 mm 3 mps 751 mmHg 64%
    10:00 +26°C° 0 mm 4 mps 751 mmHg 58%
    11:00 +27°C° 0 mm 4 mps 751 mmHg 52%
    12:00 +28°C° 0 mm 4 mps 751 mmHg 50%
    13:00 +29°C° 0 mm 4 mps 750 mmHg 47%
    14:00 +30°C° 0 mm 4 mps 750 mmHg 45%
    15:00 +28°C° 0.6 mm 3 mps 750 mmHg 57%
    16:00 +26°C° 0.6 mm 3 mps 750 mmHg 68%
    17:00 +24°C° 0.6 mm 3 mps 749 mmHg 79%
    18:00 +22°C° 0.6 mm 3 mps 749 mmHg 83%
    19:00 +21°C° 0.6 mm 3 mps 749 mmHg 87%
    20:00 +20°C° 0.6 mm 3 mps 749 mmHg 90%
    21:00 +20°C° 0.1 mm 2 mps 749 mmHg 91%
    22:00 +19°C° 0.1 mm 2 mps 749 mmHg 93%
    23:00 +19°C° 0.1 mm 2 mps 750 mmHg 94%

    22 July, Monday

    Time Temperature Precipitation Wind Pressure Humidity
    00:00 +19°C° 0 mm 3 mps 750 mmHg 94%
    01:00 +18°C° 0 mm 3 mps 750 mmHg 95%
    02:00 +18°C° 0 mm 3 mps 750 mmHg 95%
    03:00 +18°C° 0 mm 3 mps 750 mmHg 95%
    04:00 +17°C° 0 mm 3 mps 750 mmHg 95%
    05:00 +17°C° 0 mm 3 mps 750 mmHg 95%
    06:00 +18°C° 0 mm 3 mps 750 mmHg 90%
    07:00 +19°C° 0 mm 3 mps 750 mmHg 86%
    08:00 +20°C° 0 mm 3 mps 751 mmHg 81%
    09:00 +21°C° 0 mm 4 mps 751 mmHg 74%
    10:00 +23°C° 0 mm 4 mps 751 mmHg 68%
    11:00 +25°C° 0 mm 4 mps 751 mmHg 61%
    12:00 +26°C° 0 mm 5 mps 751 mmHg 59%
    13:00 +26°C° 0 mm 5 mps 751 mmHg 57%
    14:00 +26°C° 0 mm 5 mps 751 mmHg 54%
    15:00 +26°C° 0 mm 5 mps 751 mmHg 55%
    16:00 +26°C° 0 mm 4 mps 750 mmHg 56%
    17:00 +26°C° 0 mm 4 mps 750 mmHg 58%
    18:00 +25°C° 0 mm 3 mps 750 mmHg 63%
    19:00 +22°C° 0 mm 3 mps 750 mmHg 69%
    20:00 +21°C° 0 mm 2 mps 750 mmHg 75%
    21:00 +20°C° 0 mm 2 mps 750 mmHg 79%
    22:00 +19°C° 0 mm 2 mps 750 mmHg 84%
    23:00 +19°C° 0 mm 1 mps 750 mmHg 89%

    23 July, Tuesday

    Time Temperature Precipitation Wind Pressure Humidity
    00:00 +17°C° 0 mm 2 mps 750 mmHg 91%
    01:00 +17°C° 0 mm 2 mps 751 mmHg 92%
    02:00 +16°C° 0 mm 2 mps 751 mmHg 94%
    03:00 +16°C° 0 mm 2 mps 751 mmHg 95%
    04:00 +16°C° 0 mm 2 mps 751 mmHg 96%
    05:00 +16°C° 0 mm 2 mps 751 mmHg 97%
    06:00 +17°C° 0 mm 2 mps 751 mmHg 92%
    07:00 +19°C° 0 mm 3 mps 751 mmHg 86%
    08:00 +20°C° 0 mm 3 mps 751 mmHg 81%
    09:00 +21°C° 0.1 mm 3 mps 751 mmHg 77%
    10:00 +22°C° 0.1 mm 3 mps 752 mmHg 74%
    11:00 +23°C° 0.1 mm 4 mps 752 mmHg 70%
    12:00 +25°C° 0.1 mm 3 mps 752 mmHg 65%
    13:00 +26°C° 0.1 mm 3 mps 752 mmHg 59%
    14:00 +27°C° 0.1 mm 2 mps 752 mmHg 54%
    15:00 +27°C° 0.4 mm 3 mps 751 mmHg 57%
    16:00 +27°C° 0.4 mm 3 mps 751 mmHg 61%
    17:00 +26°C° 0.4 mm 4 mps 751 mmHg 64%
    18:00 +25°C° 0.3 mm 3 mps 751 mmHg 70%
    19:00 +24°C° 0.3 mm 3 mps 751 mmHg 76%
    20:00 +21°C° 0.3 mm 3 mps 751 mmHg 82%
    21:00 +21°C° 0 mm 3 mps 752 mmHg 84%
    22:00 +20°C° 0 mm 3 mps 752 mmHg 86%
    23:00 +19°C° 0 mm 3 mps 752 mmHg 89%
    Show more